{"data":{"norad_id":58406,"intl_designator":"2023-180E","name":"STARLINK-30925","alt_names":[],"object_type":"PAYLOAD","status":"ACTIVE","operator":null,"country":"US","launch_date":"2023-11-22","launch_site_code":"AFETR","launch_vehicle":null,"mission":null,"orbit_class":"UNKNOWN","rcs_meters":null,"size_class":null,"mass_kg":null,"dimensions":null,"purposes":["comms"],"wikipedia_slug":null,"has_3d_model":false,"image_url":null,"decayed_at":null,"tle_current":{"epoch":"2026-09-20T16:01:11.234496Z","epoch_age_seconds":129218,"freshness":"FRESH","line1":"1 58406U 23180E   26263.66749114 -.00000466  00000+0 -74233-5 0  9995","line2":"2 58406  43.0041  31.5657 0000981 277.4980  82.5760 15.27578170157328","mean_motion":15.2757817,"eccentricity":9.81e-5,"inclination_deg":43.0041,"raan_deg":31.5657,"arg_perigee_deg":277.498,"mean_anomaly_deg":82.576,"bstar":-7.4233e-6,"rev_number":15732,"period_min":94.266861642832,"perigee_km":482.38149282988,"apogee_km":483.72765861704,"semimajor_km":6861.1915757235,"source":"CELESTRAK","updated_at":"2026-09-21T09:00:33.870185Z"}}}